Date String (YYYY-MM-DD hh:mm:ss) UTC,Instrument flags,absolute air pressure of the measurement (hPa),sample flow rate (lpm),inlet stack bypass flow (lpm),air temperature of the measurement (°C),ambient temperature measured by the external sensor (°C),aerosol sample conditioner tube jacket temperature (°C),OPC LED temperature (°C),internal box temperature (°C),relative humidity of the measurement (%),span deviation,mass concentration of particles derived from Lorenz-Mie calculation of OPC scattering (μg/m³),mass concentration of particles derived from Lorenz-Mie calculation of OPC scattering (μg/m³),mass concentration of particles derived from Lorenz-Mie calculation of OPC scattering (μg/m³)
DateTimeUTC,F1_M11,P_M11,Q1_M11,Q2_M11,T1_M11,T2_M11,T3_M11,T4_M11,T5_M11,U1_M11,ZSPAN_M11,X2_M11,X0_M11,X1_M11
2023-10-31 14:00:00,SystemResetWarning,0837.6,5.00,000.00,021.0,019.7,000.0,029.4,022.2,11.3,0000.2,0006.59,0010.49,0006.02
2023-10-31 14:01:00,SystemResetWarning,0837.6,5.00,000.00,020.9,019.7,000.0,029.4,022.2,11.3,0000.5,0006.64,0010.63,0006.06
2023-10-31 14:02:00,SystemResetWarning,0837.5,5.00,000.00,020.9,019.6,000.0,029.4,022.2,11.3,0001.0,0006.62,0010.59,0006.09
2023-10-31 14:03:00,SystemResetWarning,0837.6,5.00,000.00,020.9,019.6,000.0,029.4,022.1,11.4,0000.3,0006.67,0010.88,0006.14
2023-10-31 14:04:00,SystemResetWarning,0837.6,5.00,000.00,020.9,019.6,000.0,029.4,022.0,11.4,-000.5,0006.72,0010.96,0006.19
2023-10-31 14:05:00,SystemResetWarning,0837.7,5.00,000.00,020.8,019.6,000.0,029.4,022.1,11.4,-000.6,0006.81,0011.09,0006.25
2023-10-31 14:06:00,SystemResetWarning,0837.7,5.01,000.00,020.9,020.4,000.0,029.4,022.7,11.3,-000.9,0006.88,0011.09,0006.34
2023-10-31 14:07:00,SystemResetWarning,0837.7,5.00,000.00,021.1,021.5,000.0,029.4,023.3,11.1,-001.0,0006.97,0011.22,0006.42
2023-10-31 14:08:00,SystemResetWarning,0837.7,5.00,000.00,021.3,021.7,000.0,029.5,023.2,11.0,-000.1,0007.09,0011.57,0006.50
2023-10-31 14:09:00,SystemResetWarning,0837.7,4.99,000.00,021.3,021.5,000.0,029.5,023.1,11.0,0000.1,0007.15,0011.59,0006.55
2023-10-31 14:10:00,SystemResetWarning,0837.6,5.00,000.00,021.3,021.2,000.0,029.5,023.0,11.0,-000.0,0007.17,0011.62,0006.59
2023-10-31 14:11:00,SystemResetWarning,0837.7,5.00,000.00,021.3,021.0,000.0,029.5,022.9,11.0,0000.3,0007.26,0012.24,0006.68
2023-10-31 14:12:00,SystemResetWarning,0837.6,5.00,000.00,021.3,020.8,000.0,029.5,022.8,11.0,-000.5,0007.37,0012.33,0006.77
2023-10-31 14:13:00,SystemResetWarning,0837.6,5.00,000.00,021.3,020.6,000.0,029.5,022.8,11.0,-000.3,0007.45,0012.46,0006.84
2023-10-31 14:14:00,SystemResetWarning,0837.6,5.01,000.00,021.3,020.5,000.0,029.5,022.7,11.0,0000.0,0007.52,0012.40,0006.90
2023-10-31 14:15:00,SystemResetWarning,0837.7,5.00,000.00,021.2,020.4,000.0,029.5,022.6,11.0,0001.3,0007.56,0012.50,0006.93
2023-10-31 14:16:00,SystemResetWarning,0837.6,5.00,000.00,021.2,020.2,000.0,029.5,022.6,11.1,0001.6,0007.60,0012.86,0006.96
2023-10-31 14:17:00,SystemResetWarning,0837.7,5.01,000.00,021.2,020.2,000.0,029.5,022.5,11.1,0001.6,0007.64,0013.00,0006.98
2023-10-31 14:18:00,SystemResetWarning,0837.6,4.99,000.00,021.2,020.1,000.0,029.5,022.5,11.2,0002.0,0007.63,0013.07,0006.97
2023-10-31 14:19:00,SystemResetWarning,0837.6,5.00,000.00,021.1,020.1,000.0,029.5,022.4,11.2,0001.7,0007.52,0012.91,0006.93
2023-10-31 14:20:00,SystemResetWarning,0837.6,5.00,000.00,021.1,020.0,000.0,029.5,022.4,11.4,0001.8,0007.44,0012.76,0006.88
2023-10-31 14:21:00,SystemResetWarning,0837.7,5.00,000.00,021.1,020.0,000.0,029.5,022.4,11.4,0001.9,0007.40,0012.67,0006.84
2023-10-31 14:22:00,SystemResetWarning,0837.7,5.00,000.00,021.1,020.0,000.0,029.5,022.4,11.4,0001.6,0007.32,0012.19,0006.75
2023-10-31 14:23:00,SystemResetWarning,0837.7,5.00,000.00,021.0,019.9,000.0,029.5,022.3,11.3,0001.9,0007.18,0011.93,0006.63
2023-10-31 14:24:00,SystemResetWarning,0837.7,5.00,000.00,021.0,019.9,000.0,029.5,022.3,11.4,0001.9,0007.08,0011.89,0006.53
2023-10-31 14:25:00,SystemResetWarning,0837.7,5.00,000.00,021.0,019.9,000.0,029.5,022.3,11.6,0001.9,0006.96,0012.57,0006.41
2023-10-31 14:26:00,SystemResetWarning,0837.7,5.00,000.00,021.0,019.9,000.0,029.5,022.3,11.4,0001.6,0006.83,0012.12,0006.32
2023-10-31 14:27:00,SystemResetWarning,0837.8,5.00,000.00,021.0,019.9,000.0,029.5,022.3,11.7,0001.9,0006.72,0011.47,0006.23
2023-10-31 14:28:00,SystemResetWarning,0837.8,5.01,000.00,021.0,019.9,000.0,029.4,022.3,11.7,0002.6,0006.62,0011.61,0006.11
2023-10-31 14:29:00,SystemResetWarning,0837.8,5.00,000.00,021.0,019.9,000.0,029.4,022.3,11.8,0002.8,0006.49,0011.41,0005.99
2023-10-31 14:30:00,SystemResetWarning,0837.8,5.01,000.00,020.9,019.9,000.0,029.4,022.3,12.0,0003.1,0006.40,0011.20,0005.90
2023-10-31 14:31:00,SystemResetWarning,0837.8,4.99,000.00,020.9,019.9,000.0,029.4,022.2,12.1,0003.4,0006.35,0011.42,0005.83
2023-10-31 14:32:00,SystemResetWarning,0837.8,4.99,000.00,020.9,020.0,000.0,029.4,022.2,12.3,0003.4,0006.30,0011.70,0005.77
2023-10-31 14:33:00,SystemResetWarning,0837.7,5.00,000.00,020.9,020.0,000.0,029.4,022.3,12.4,0004.0,0006.22,0011.70,0005.70
2023-10-31 14:34:00,SystemResetWarning,0837.7,5.01,000.00,020.9,019.9,000.0,029.4,022.3,12.4,0004.1,0006.16,0011.64,0005.64
2023-10-31 14:35:00,SystemResetWarning,0837.8,5.01,000.00,020.9,020.0,000.0,029.4,022.3,12.5,0004.0,0006.08,0011.40,0005.58
2023-10-31 14:36:00,SystemResetWarning,0837.8,5.00,000.00,020.9,019.9,000.0,029.4,022.3,12.4,0004.2,0006.00,0010.76,0005.53
2023-10-31 14:37:00,SystemResetWarning,0837.7,5.00,000.00,020.9,019.9,000.0,029.4,022.3,12.1,0000.5,0006.00,0010.46,0005.50
2023-10-31 14:38:00,SystemResetWarning,0837.8,5.00,000.00,020.9,020.0,000.0,029.4,022.3,12.1,0001.2,0005.96,0010.62,0005.46
2023-10-31 14:39:00,SystemResetWarning,0837.8,4.99,000.00,020.9,020.0,000.0,029.4,022.3,12.2,0002.5,0005.90,0010.32,0005.42
2023-10-31 14:40:00,SystemResetWarning,0837.8,5.00,000.00,020.9,020.0,000.0,029.4,022.3,12.3,0003.1,0005.91,0010.46,0005.38
2023-10-31 14:41:00,SystemResetWarning,0837.8,5.00,000.00,020.9,020.0,000.0,029.3,022.3,12.4,0003.1,0005.88,0010.38,0005.32
2023-10-31 14:42:00,SystemResetWarning,0837.8,5.00,000.00,020.9,020.0,000.0,029.3,022.3,12.3,0002.0,0005.83,0010.19,0005.27
2023-10-31 14:43:00,SystemResetWarning,0837.8,5.00,000.00,020.9,020.0,000.0,029.3,022.3,12.1,0001.3,0005.78,0009.72,0005.21
2023-10-31 14:44:00,SystemResetWarning,0837.8,5.00,000.00,020.9,020.0,000.0,029.3,022.3,12.2,0003.1,0005.75,0009.59,0005.15
2023-10-31 14:45:00,SystemResetWarning,0837.9,5.00,000.00,020.9,020.0,000.0,029.3,022.3,12.2,0003.1,0005.70,0009.55,0005.11
2023-10-31 14:46:00,SystemResetWarning,0838.0,5.00,000.00,020.9,020.1,000.0,029.3,022.3,12.3,0003.4,0005.65,0009.51,0005.07
2023-10-31 14:47:00,SystemResetWarning,0838.0,5.00,000.00,020.9,020.1,000.0,029.3,022.3,12.2,0003.6,0005.63,0009.43,0005.04
2023-10-31 14:48:00,SystemResetWarning,0838.1,5.00,000.00,020.9,020.1,000.0,029.3,022.3,12.1,0003.3,0005.56,0009.26,0004.99
2023-10-31 14:49:00,SystemResetWarning,0838.0,5.00,000.00,020.9,020.1,000.0,029.3,022.3,12.3,0003.7,0005.54,0009.04,0004.96
2023-10-31 14:50:00,SystemResetWarning,0838.0,5.00,000.00,020.9,020.1,000.0,029.3,022.4,12.6,0001.7,0005.52,0008.93,0004.93
2023-10-31 14:51:00,SystemResetWarning,0838.0,5.01,000.00,021.0,020.1,000.0,029.3,022.4,12.3,0000.0,0005.44,0008.66,0004.91
2023-10-31 14:52:00,SystemResetWarning,0838.0,5.01,000.00,021.0,020.1,000.0,029.3,022.3,11.9,0000.0,0005.40,0008.76,0004.90
2023-10-31 14:53:00,SystemResetWarning,0838.0,5.00,000.00,021.0,020.1,000.0,029.3,022.3,11.9,0000.0,0005.36,0008.73,0004.89
2023-10-31 14:54:00,SystemResetWarning,0838.0,5.01,000.00,021.0,020.2,000.0,029.3,022.4,12.0,0000.0,0005.33,0009.00,0004.88
2023-10-31 14:55:00,SystemResetWarning,0838.1,5.00,000.00,021.0,020.2,000.0,029.3,022.4,12.1,0000.0,0005.30,0009.22,0004.86
2023-10-31 14:56:00,SystemResetWarning,0838.1,4.99,000.00,021.0,020.2,000.0,029.3,022.4,12.1,0000.0,0005.25,0009.50,0004.84
2023-10-31 14:57:00,SystemResetWarning,0838.0,4.99,000.00,021.0,020.2,000.0,029.3,022.4,12.1,0000.0,0005.25,0009.50,0004.83
2023-10-31 14:58:00,SystemResetWarning,0838.0,4.99,000.00,021.0,020.2,000.0,029.3,022.4,11.6,0000.0,0005.24,0009.52,0004.81
2023-10-31 14:59:00,SystemResetWarning,0837.9,5.00,000.00,021.0,020.2,000.0,029.3,022.4,11.5,0000.0,0005.24,0009.55,0004.80
